Simultaneous Nadir Overpasses (SNOs) Predictions

Prediction of SNOs near US between AQUA and NPP Satellite Orbit:

Table of predicted SNOs near US for the next 10.0 days since TLE Epoch: 10/17/2014
Index Date (AQUA) Time (AQUA) AQUA Lat,Lon Date (NPP) Time (NPP) NPP Lat,Lon Distance(km) Time Diff (sec)
1 10/17/2014 20:14:34 49.97,-109.59 10/17/2014 20:07:24 50.08,-108.93 48.54 430
2 10/20/2014 17:26:49 46.80, -66.60 10/20/2014 17:27:42 46.56, -67.78 93.69 53
3 10/20/2014 19:03:11 37.79, -88.29 10/20/2014 19:06:35 37.47, -89.94 150.20 204
4 10/20/2014 20:39:35 28.84,-110.53 10/20/2014 20:45:29 28.38,-112.68 216.49 354
5 10/23/2014 06:56:24 20.04, -77.20 10/23/2014 06:53:17 19.96, -76.75 47.99 187
6 10/23/2014 08:31:30 33.70, -98.48 10/23/2014 08:30:52 33.70, -98.49 0.20 38
7 10/23/2014 10:05:51 49.93,-117.74 10/23/2014 10:07:41 49.98,-118.07 24.23 110
8 10/25/2014 19:25:08 49.99, -97.23 10/25/2014 19:16:48 51.49, -96.84 168.57 500
9 10/25/2014 21:04:01 49.99,-121.95 10/25/2014 20:57:53 50.07,-121.56 29.12 368




NCC Satellite Simultaneous Nadir Overpasses (SNOs) Prediction Service
